Location: USNO
(38.9242°N, 77.0663°W)
Time: 08:25:16
(UTC-04:00)

Vanguard 3 - Visible Passes

Search period start: 19 October 2017 00:00
Search period end: 29 October 2017 00:00
Orbit: 510 x 3263 km, 33.3° (Epoch: 18 October)

Date Brightness Start Highest point End Pass type
(mag) Time Alt. Az. Time Alt. Az. Time Alt. Az.
19 Oct 10.6 02:56:20 20° SE 02:56:20 20° SE 03:02:59 10° ESE visible
19 Oct 9.6 05:00:56 22° SSW 05:08:47 41° SSE 05:16:44 10° E visible
20 Oct 10.0 03:51:38 32° S 03:53:54 33° SSE 04:03:03 10° E visible
20 Oct 9.0 05:56:14 14° WSW 06:07:34 53° S 06:14:53 10° E visible
21 Oct 10.6 02:42:14 23° SE 02:42:14 23° SE 02:48:26 10° E visible
21 Oct 9.5 04:46:50 32° SSW 04:52:56 47° SSE 05:01:42 10° E visible
21 Oct 8.7 06:54:23 10° WSW 07:06:12 60° S 07:12:43 10° E visible
22 Oct 9.9 03:37:23 39° SSE 03:37:51 39° SSE 03:48:01 10° E visible
22 Oct 9.0 05:41:59 21° WSW 05:51:50 59° S 05:59:49 10° E visible
23 Oct 10.6 02:27:52 25° ESE 02:27:52 25° ESE 02:33:32 10° E visible
23 Oct 9.5 04:32:28 42° SSW 04:36:57 53° SSE 04:46:35 10° E visible
23 Oct 8.8 06:37:36 10° WSW 06:50:33 63° S 06:57:40 10° ESE visible
24 Oct 9.9 03:22:53 44° SE 03:22:53 44° SE 03:32:50 10° E visible
24 Oct 9.1 05:27:28 28° WSW 05:35:58 63° S 05:44:41 10° E visible
25 Oct 10.6 02:13:16 25° ESE 02:13:16 25° ESE 02:18:22 10° E visible
25 Oct 9.4 04:17:50 52° SSW 04:20:51 58° SSE 04:31:21 10° E visible
25 Oct 8.9 06:22:26 14° W 06:34:49 65° S 06:42:32 10° ESE visible
26 Oct 9.9 03:08:11 46° SE 03:08:11 46° SE 03:17:31 10° E visible
26 Oct 9.2 05:12:46 36° WSW 05:20:01 67° S 05:29:29 10° E visible
27 Oct 10.7 01:58:30 24° ESE 01:58:30 24° ESE 02:02:59 10° E visible
27 Oct 9.5 04:03:04 60° SSW 04:04:38 63° SSE 04:16:02 10° E visible
27 Oct 9.0 06:07:39 19° W 06:18:58 66° S 06:27:22 10° ESE visible
28 Oct 10.0 02:53:21 45° ESE 02:53:21 45° ESE 03:02:04 10° E visible
28 Oct 9.3 04:57:55 44° WSW 05:03:57 69° S 05:14:13 10° E visible
28 Oct 9.0 07:04:20 10° W 07:17:29 54° SSW 07:24:54 10° SE visible
